Regional Weather Roundup
Issued by NWS Portland, ME

Current Version | Previous Version | Text Only | Print | Product List | Glossary Off
Versions: 1 2 3 4 5 6 7 8 9 10 11 12 13 14 15 16 17 18 19 20 21 22 23 24 25 26 27 28 29 30 31 32 33 34 35 36 37 38 39 40 41 42 43 44 45 46 47 48 49 50
000 ASUS41 KGYX 220405 RWRGYX WEATHER ROUNDUP FOR MAINE AND NEW HAMPSHIRE NATIONAL WEATHER SERVICE GRAY ME 1100 PM EST WED FEB 21 2018 MEZ002-005-006-010-012-015-018-020-021-024-026-027-029-220500- MAINE CITY SKY/WX TMP DP RH WIND PRES REMARKS PORTLAND FAIR 47 31 53 N12 30.36R SANFORD FAIR 47 29 49 NW8 30.36R BAR HARBOR CLOUDY 43 23 45 NW14G24 30.31R WISCASSET MOCLDY 46 33 60 MISG 30.37R ROCKLAND FAIR 47 29 49 NW10G24 30.33R FRYEBURG FAIR 41 31 67 N5 30.37R LEWISTONAUBURN CLOUDY 45 28 51 N12G21 30.37R AUGUSTA CLOUDY 43 25 49 NW12 30.37R WATERVILLE FAIR 42 27 55 N9 30.33R BANGOR FAIR 39 25 57 NW18G29 30.35R GREENVILLE N/A 30 18 60 NW24G33 30.31R WCI 16 MILLINOCKET FAIR 36 23 59 NW13G22 30.36R HOULTON FAIR 35 20 54 NW14G22 30.29R PRESQUE ISLE FAIR 28 11 48 NW16G23 30.34R WCI 16 FRENCHVILLE FAIR 18 7 62 NW22G30 30.32R WCI 1 CARIBOU FAIR 26 9 48 NW17G28 30.32R WCI 13 $$ NHZ002-005-008-009-011-012-014-220500- NEW HAMPSHIRE CITY SKY/WX TMP DP RH WIND PRES REMARKS ROCHESTER CLOUDY 48 30 49 NW10 30.35R MANCHESTER CLOUDY 51 26 37 NW15G25 30.37R CONCORD FAIR 44 29 55 NW6 30.38R LACONIA FAIR 43 27 53 VRB7 30.40R PLYMOUTH FAIR 40 26 57 W10G20 30.43R BERLIN FAIR 36 26 67 VRB5 30.41R WHITEFIELD CLOUDY 36 27 69 NW9 30.44R JAFFREY CLOUDY 49 41 74 NW5 30.38R KEENE CLOUDY 47 30 51 N13 30.40R LEBANON CLOUDY 42 25 50 N9 30.45R MT WASHINGTON FOG 14 14 100 W67G72 N/A VSB 1/16WCI -14 $$ VTZ005-007-008-220500- VERMONT CITY SKY/WX TMP DP RH WIND PRES REMARKS ST JOHNSBURY N/A 35 25 66 MISG 30.46R MONTPELIER FAIR 33 25 72 NW10 30.51R BURLINGTON FAIR 36 24 62 N13 30.54R $$ MAZ007-012-024-CTZ003-RIZ002-NYZ038-NYZ072-220500- SOUTHERN NEW ENGLAND AND NY CITY SKY/WX TMP DP RH WIND PRES REMARKS BOSTON CLOUDY 57 45 64 N14 30.36R WORCESTER CLOUDY 55 44 66 NW8 30.37R NANTUCKET CLOUDY 46 46 100 W10 30.35R PROVIDENCE CLOUDY 63 51 65 NW7 30.33R HARTFORD CLOUDY 54 43 66 NW9 30.39R ALBANY MOCLDY 40 33 76 NW8 30.50R NEW YORK CITY CLOUDY 59 49 69 N8 30.37R $$ ANZ081-ANZ082-ANZ150-NHZ014-MEZ023>029-220500- COASTAL MARINE OBSERVATIONS STATION/POSITION TIME TEMP WIND PRES WAVE AIR SEA DIR/SP/G HT/PER (UTC) (F) (DEG/KT/KT) (MB) (FT/S) JEFFREYS LEDGE 0336 42 N/A 4/14 GEORGES BANK BUO 0250 60 61 1016.2 11/ 7 $$ .............KEY.............. WCI - WIND CHILL TC - TEMPERATURE IN CELSIUS VSB - VISIBILITY IN MILES HX - HEAT INDEX FAIR- INDICATES FEW OR NO CLOUDS BELOW 12,000 FT, WITH NO SIGNIFICANT WEATHER AND/OR OBSTRUCTIONS TO VISIBILITY.

USA.gov is the U.S. government's official web portal to all federal, state and local government web resources and services.